Left ArrowRight Arrow

33.98154, -81.23621

Hourly Observations for January 12, 2020

Temp ( °F °C ) Dew Point ( °F °C ) Humidity (%) Winds ( mph kmh ) Pressure ( in mb ) Visibility ( mi km ) Precip ( " mm )
12:33 am 00:33 Cloudy 67 19.4 67 19.4 100 100 SSW 10 17 30.10 1019 10 16 0.00 0.00
12:56 am 00:56 Cloudy 69 20.6 67 19.4 93 93 SSW 9 15 30.08 1019 10 16 0.00 0.00
1:56 am 01:56 Cloudy 68 20 67 19.4 96 96 SSW 13 20 30.12 1020 10 16 0.00 0.00
2:56 am 02:56 Mostly Cloudy 67 19.4 66 18.9 97 97 SW 10 17 30.16 1021 10 16 0.00 0.00
3:56 am 03:56 Cloudy 67 19.4 66 18.9 97 97 SSW 9 15 30.17 1022 10 16 0.00 0.00
4:56 am 04:56 Cloudy 66 18.9 65 18.3 96 96 W 6 9 30.16 1021 10 16 0.00 0.00
5:56 am 05:56 Cloudy 66 18.9 65 18.3 96 96 WSW 6 9 30.19 1022 10 16 0.00 0.00
6:56 am 06:56 Cloudy 68 20 65 18.3 90 90 Calm 30.22 1023 10 16 0.00 0.00
7:56 am 07:56 Cloudy with Mist and Fog 65 18.3 65 18.3 100 100 Calm 30.24 1024 6 10 0.00 0.00
8:56 am 08:56 Cloudy with Mist and Fog 66 18.9 66 18.9 100 100 Calm 30.26 1025 6 10 0.00 0.00
9:56 am 09:56 Cloudy with Mist and Fog 66 18.9 66 18.9 100 100 VRB 3 6 30.28 1025 6 10 0.00 0.00
10:56 am 10:56 Cloudy with Mist and Fog 66 18.9 66 18.9 100 100 Calm 30.29 1026 6 10 0.00 0.00
11:38 am 11:38 Cloudy with Drizzle 66 18.9 66 18.9 100 100 Calm 30.29 1026 3 5 0.00 0.00
11:56 am 11:56 Cloudy with Mist and Fog 67 19.4 66 18.9 97 97 Calm 30.28 1025 N/A 0.00 0.00
12:06 pm 12:06 Cloudy 66 19 66 19 100 100 VRB 3 6 30.28 1025 7 11 0.00 0.00
12:56 pm 12:56 Cloudy 68 20 65 18.3 90 90 VRB 5 7 30.25 1025 10 16 0.00 0.00
1:56 pm 13:56 Cloudy 68 20 66 18.9 93 93 Calm 30.24 1024 10 16 0.00 0.00
2:56 pm 14:56 Cloudy 68 20 65 18.3 90 90 VRB 3 6 30.24 1024 8 13 0.00 0.00
3:31 pm 15:31 Cloudy with Rain 68 20 65 18.3 90 90 VRB 3 6 30.24 1024 4 6 0.00 0.00
3:47 pm 15:47 Cloudy with Nearby Thunderstorms 68 20 65 18.3 90 90 SE 5 7 30.25 1024 6 10 0.00 0.00
3:51 pm 15:51 Cloudy with Nearby Thunderstorms 68 20 64 18 88 88 SE 5 7 30.25 1024 1 2 0.00 0.00
3:56 pm 15:56 Cloudy with Nearby Thunderstorms 68 20 65 18.3 90 90 SSE 5 7 30.24 1024 1 1 0.00 0.00
4:16 pm 16:16 Cloudy with Light Rain 66 19 64 18 94 94 SSE 5 7 30.25 1024 1 1 0.00 0.00
4:24 pm 16:24 Cloudy with Nearby Thunderstorms 67 19.4 65 18.3 93 93 SSE 5 7 30.25 1024 1 2 0.00 0.00
4:47 pm 16:47 Cloudy with Rain 67 19.4 65 18.3 93 93 Calm 30.26 1025 1 1 0.00 0.00
4:56 pm 16:56 Cloudy with Light Rain 67 19.4 65 18.3 93 93 Calm 30.26 1025 1 1 0.00 0.00
5:13 pm 17:13 Cloudy with Light Rain 67 19.4 65 18.3 93 93 SSE 3 6 30.26 1025 1 1 0.00 0.00
5:26 pm 17:26 Cloudy with Light Rain 67 19.4 65 18.3 93 93 SSE 3 6 30.27 1025 1 1 0.00 0.00
5:56 pm 17:56 Cloudy with Light Rain 67 19.4 65 18.3 93 93 SE 3 6 30.27 1025 2 2 0.00 0.00
6:21 pm 18:21 Cloudy with Light Rain 67 19.4 65 18.3 93 93 Calm 30.29 1026 3 5 0.00 0.00
6:56 pm 18:56 Cloudy with Rain 67 19.4 65 18.3 93 93 Calm 30.28 1025 3 5 0.00 0.00
7:03 pm 19:03 Cloudy with Nearby Thunderstorms 67 19.4 65 18.3 93 93 SE 5 7 30.29 1026 3 5 0.00 0.00
7:37 pm 19:37 Cloudy with Light Rain 66 18.9 65 18.3 96 96 SE 5 7 30.30 1026 3 5 0.00 0.00
7:56 pm 19:56 Cloudy with Light Rain 66 18.9 65 18.3 96 96 SSE 5 7 30.29 1026 6 10 0.00 0.00
8:56 pm 20:56 Cloudy with Nearby Thunderstorms 65 18.3 64 17.8 97 97 Calm 30.30 1026 8 13 0.00 0.00
9:08 pm 21:08 Cloudy 65 18.3 64 17.8 97 97 S 3 6 30.30 1026 10 16 0.00 0.00
9:56 pm 21:56 Cloudy with Light Rain 65 18.3 64 17.8 97 97 SSE 3 6 30.29 1026 7 11 0.00 0.00
10:30 pm 22:30 Cloudy with Nearby Thunderstorms 65 18.3 64 17.8 97 97 SE 5 7 30.31 1026 10 16 0.00 0.00
10:45 pm 22:45 Cloudy 65 18.3 64 17.8 97 97 SSE 3 6 30.31 1026 10 16 0.00 0.00
10:56 pm 22:56 Cloudy 65 18.3 64 17.8 97 97 SSE 3 6 30.30 1026 10 16 0.00 0.00
11:40 pm 23:40 Cloudy with Mist and Fog 65 18.3 64 17.8 97 97 SSE 3 6 30.31 1026 3 5 0.00 0.00
11:56 pm 23:56 Cloudy 65 18.3 64 17.8 97 97 SSE 3 6 30.30 1026 8 13 0.00 0.00

Powered by Vaisala Xweather